ワイスマン-スキッフ彗星

114P/Wiseman-Skiff (2013)

English version
Home page
Updated on February 23, 2014

---------------------------------------------------------------------

・ プロフィール

・ 写真集

・ 軌道要素

Epoch 2013 June 1.0 TT = JDT 2456444.5
T 2013 May 13.89622 TT                                  MPC
q   1.5748647            (2000.0)            P               Q
n   0.14775237     Peri.  172.84519     +0.09997792     -0.94425195
a   3.5436140      Node   271.05475     +0.89663772     +0.22216494
e   0.5555767      Incl.   18.28412     +0.43132960     -0.24296297
P   6.67
From 408 observations 1987 Jan. 19-2013 Feb. 10, mean residual 0".8.
     Nongravitational parameters A1 = +0.23, A2 = +0.0024.

・ 星図

・ 光度変化

        m1 = 11.0 + 5 logΔ + 20.0 log r

---------------------------------------------------------------------

軌道要素はM.P.E.C. 2013-D50に掲載されたものです。
星図はステラナビゲータ Ver.8 (アストロアーツ) で作成したものです。
光度グラフはComet for Windowsで作成したものです。

---------------------------------------------------------------------

Copyright(C) Seiichi Yoshida (comet@aerith.net). All rights reserved.